User: anonymous   Login
Location: Unspecified
(0.0000°N, 0.0000°E)
Time: 16:17:37
(UTC+00:00)
Language:

JASON 2 - Orbit

View from above orbital plane
View from above orbital plane
View from above satellite
View from above satellite

Ground track
Ground track

The orbit data is extracted from the following two-line orbital elements,

1 33105U 08032A   21332.94236788 -.00000065  00000-0 -91174-5 0  9993
2 33105  66.0388 303.9288 0007937 268.8660 121.4073 12.87633854629811
Epoch (UTC): 28 November 2021 22:37:00
Eccentricity: 0.0007937
inclination: 66.0388°
perigee height: 1305 km
apogee height: 1317 km
right ascension of ascending node: 303.9288°
argument of perigee: 268.8660°
revolutions per day: 12.87633854
mean anomaly at epoch: 121.4073°
orbit number at epoch: 62981

The dashed part of the orbit path shows where the satellite is in the earth's shadow,  

DLR